Winfield, KS

7:19 AM CST on December 15, 2019 (GMT -0600)
Strother

Weather History for KWLD - August, 2019

Change the Weather History Date:

Wednesday, August 28, 2019

  Actual Average Record
Temperature  
Mean Temperature 72 °F -  
Max Temperature 84 °F 90 °F 102 °F (2011)
Min Temperature 59 °F 66 °F 62 °F (2017)
Cooling Degree Days 6    
Growing Degree Days 22 (Base 50)    
Moisture  
Dew Point 61 °F    
Average Humidity 72    
Maximum Humidity 96    
Minimum Humidity 37    
Precipitation  
Precipitation 0.00 in - - ()
Sea Level Pressure  
Sea Level Pressure 30.08 in    
Wind  
Wind Speed 3 mph ()    
Max Wind Speed 9 mph    
Max Gust Speed -    
Visibility 10.0 miles    
Events      
Averages and records for this station are not official NWS values.
T = Trace of Precipitation, MM = Missing Value Source: Averaged Metar Reports

Daily Weather History Graph

Daily Weather History Graph

Search for Another Location

Airport or City:

Astronomy

Aug. 28, 2019 Rise Set
Actual Time 6:55 AM CDT 8:02 PM CDT
Civil Twilight 6:28 AM CDT 8:29 PM CDT
Nautical Twilight 5:56 AM CDT 9:01 PM CDT
Astronomical Twilight 5:23 AM CDT 9:34 PM CDT
Moon 4:33 AM CDT (8/28) 7:12 PM CDT (8/28)
Length of Visible Light 14h 01m
Length of Day
13h 07m
Waning Crescent, 4% of the Moon is Illuminated
Aug 28
Waning Crescent
Aug 30
New
Sep 5
First Quarter
Sep 13
Full
Sep 21
Last Quarter

Hourly Weather History & Observations

Time (CDT) Temp. Heat Index Dew Point Humidity Pressure Visibility Wind Dir Wind Speed Gust Speed Precip Events Conditions
12:54 AM 62.1 °F - 60.1 °F 93% 30.12 in 10.0 mi Calm Calm - N/A   Clear
1:54 AM 62.1 °F - 59.0 °F 90% 30.12 in 10.0 mi Calm Calm - N/A   Clear
2:54 AM 63.0 °F - 60.1 °F 90% 30.12 in 10.0 mi Calm Calm - N/A   Partly Cloudy
3:54 AM 61.0 °F - 59.0 °F 93% 30.12 in 10.0 mi North 3.5 mph - N/A   Mostly Cloudy
4:54 AM 60.1 °F - 59.0 °F 96% 30.12 in 10.0 mi North 3.5 mph - N/A   Mostly Cloudy
5:54 AM 60.1 °F - 57.9 °F 93% 30.13 in 10.0 mi North 5.8 mph - N/A   Mostly Cloudy
6:54 AM 59.0 °F - 57.0 °F 93% 30.13 in 10.0 mi North 3.5 mph - N/A   Clear
7:54 AM 63.0 °F - 60.1 °F 90% 30.14 in 10.0 mi North 3.5 mph - N/A   Clear
8:54 AM 68.0 °F - 63.0 °F 84% 30.14 in 10.0 mi SSE 3.5 mph - N/A   Clear
9:54 AM 73.9 °F - 64.9 °F 73% 30.14 in 10.0 mi ESE 3.5 mph - N/A   Clear
10:54 AM 77.0 °F - 62.1 °F 60% 30.14 in 10.0 mi SSE 6.9 mph - N/A   Clear
11:54 AM 79.0 °F - 62.1 °F 56% 30.13 in 10.0 mi SSE 9.2 mph - N/A   Clear
12:54 PM 81.0 °F 82.2 °F 63.0 °F 54% 30.12 in 10.0 mi South 6.9 mph - N/A   Clear
1:54 PM 82.0 °F 82.7 °F 61.0 °F 49% 30.10 in 10.0 mi South 6.9 mph - N/A   Clear
2:54 PM 84.0 °F 83.8 °F 59.0 °F 43% 30.08 in 10.0 mi Variable 4.6 mph - N/A   Clear
3:54 PM 84.0 °F 82.9 °F 55.0 °F 37% 30.06 in 10.0 mi ESE 5.8 mph - N/A   Clear
4:54 PM 84.0 °F 83.5 °F 57.9 °F 41% 30.04 in 10.0 mi SE 8.1 mph - N/A   Clear
5:54 PM 82.0 °F 82.4 °F 60.1 °F 47% 30.02 in 10.0 mi SSE 9.2 mph - N/A   Clear
6:54 PM 80.1 °F 81.2 °F 62.1 °F 54% 30.00 in 10.0 mi South 6.9 mph - N/A   Clear
7:54 PM 77.0 °F - 64.9 °F 66% 30.00 in 10.0 mi SSE 3.5 mph - N/A   Clear
8:54 PM 73.0 °F - 64.9 °F 76% 30.01 in 10.0 mi South 4.6 mph - N/A   Clear
9:54 PM 73.0 °F - 64.9 °F 76% 30.02 in 10.0 mi SE 4.6 mph - N/A   Clear
10:54 PM 72.0 °F - 64.9 °F 78% 30.01 in 10.0 mi ESE 5.8 mph - N/A   Clear
11:54 PM 70.0 °F - 64.9 °F 84% 30.01 in 10.0 mi SE 4.6 mph - N/A   Clear